Ainsworth, NE

12:44 AM CDT on September 01, 2016 (GMT -0500)
Ainsworth Municipal

Weather History for KANW - May, 2012

Change the Weather History Date:

Tuesday, May 29, 2012

  Actual Average Record
Temperature  
Mean Temperature 58 °F -  
Max Temperature 72 °F 70 °F 90 °F (2014)
Min Temperature 44 °F 48 °F 37 °F (1997)
Degree Days  
Heating Degree Days 8    
Growing Degree Days 8 (Base 50)    
Moisture  
Dew Point 36 °F    
Average Humidity 47    
Maximum Humidity 71    
Minimum Humidity 25    
Precipitation  
Precipitation 0.00 in - - ()
Sea Level Pressure  
Sea Level Pressure 30.04 in    
Wind  
Wind Speed 10 mph (NW)    
Max Wind Speed 18 mph    
Max Gust Speed 29 mph    
Visibility 10 miles    
Events      
Averages and records for this station are not official NWS values.
T = Trace of Precipitation, MM = Missing Value Source: NWS Daily Summary

Daily Weather History Graph

Daily Weather History Graph

Search for Another Location

Airport or City:

Trip Planner

Search our weather history database for the weather conditions in past years. The results will help you decide how hot, cold, wet, or windy it might be!

Date:

Astronomy

May. 29, 2012 Rise Set
Actual Time 6:06 AM CDT 9:09 PM CDT
Civil Twilight 5:32 AM CDT 9:43 PM CDT
Nautical Twilight 4:49 AM CDT 10:26 PM CDT
Astronomical Twilight 3:58 AM CDT 11:17 PM CDT
Moon 2:34 PM CDT (5/29) 2:08 AM CDT (5/29)
Length of Visible Light 16h 10m
Length of Day
15h 02m
First Quarter, 59% of the Moon is Illuminated
May 29
First Quarter
Jun 4
Full
Jun 11
Last Quarter
Jun 19
New
Jun 26
First Quarter

Hourly Weather History & Observations

Time (CDT) Temp. Windchill Dew Point Humidity Pressure Visibility Wind Dir Wind Speed Gust Speed Precip Events Conditions
12:15 AM 54.0 °F - 38.1 °F 55% 29.98 in 10.0 mi North 10.4 mph - N/A   Mostly Cloudy
12:35 AM 52.3 °F - 37.8 °F 58% 29.99 in 10.0 mi NNW 6.9 mph - N/A   Scattered Clouds
12:55 AM 50.7 °F - 37.4 °F 60% 29.99 in 10.0 mi NNW 5.8 mph - N/A   Clear
1:15 AM 50.0 °F - 37.4 °F 62% 30.01 in 10.0 mi NNW 6.9 mph - N/A   Clear
1:35 AM 49.1 °F - 36.7 °F 62% 30.00 in 10.0 mi NNW 8.1 mph - N/A   Clear
1:55 AM 49.6 °F - 35.8 °F 59% 30.01 in 10.0 mi NW 8.1 mph - N/A   Scattered Clouds
2:15 AM 48.9 °F - 35.6 °F 60% 30.01 in 10.0 mi NNW 10.4 mph - N/A   Scattered Clouds
2:35 AM 49.5 °F - 35.4 °F 58% 30.01 in 10.0 mi NW 9.2 mph - N/A   Clear
2:55 AM 49.1 °F - 35.6 °F 60% 30.02 in 10.0 mi WNW 4.6 mph - N/A   Clear
3:15 AM 47.7 °F - 35.6 °F 63% 30.03 in 10.0 mi NW 10.4 mph - N/A   Clear
3:35 AM 48.2 °F - 35.6 °F 62% 30.03 in 10.0 mi WNW 6.9 mph - N/A   Clear
3:55 AM 49.1 °F - 35.1 °F 58% 30.03 in 10.0 mi WNW 9.2 mph - N/A   Clear
4:15 AM 47.3 °F - 35.2 °F 63% 30.03 in 10.0 mi WNW 9.2 mph - N/A   Clear
4:35 AM 46.6 °F - 35.1 °F 64% 30.03 in 10.0 mi WNW 9.2 mph - N/A   Clear
4:55 AM 46.0 °F 42.5 °F 35.1 °F 66% 30.04 in 10.0 mi WNW 6.9 mph - N/A   Clear
5:15 AM 45.5 °F 42.5 °F 35.1 °F 67% 30.03 in 10.0 mi WNW 5.8 mph - N/A   Clear
5:35 AM 45.0 °F 41.2 °F 35.2 °F 69% 30.03 in 10.0 mi WNW 6.9 mph - N/A   Clear
5:55 AM 44.4 °F 40.5 °F 35.2 °F 70% 30.04 in 10.0 mi West 6.9 mph - N/A   Clear
6:15 AM 44.2 °F 40.3 °F 35.2 °F 71% 30.05 in 10.0 mi WSW 6.9 mph - N/A   Clear
6:35 AM 45.0 °F 40.1 °F 35.4 °F 69% 30.05 in 10.0 mi West 9.2 mph - N/A   Clear
6:55 AM 46.6 °F - 35.8 °F 66% 30.06 in 10.0 mi WSW 6.9 mph - N/A   Clear
7:15 AM 46.9 °F - 36.5 °F 67% 30.07 in 10.0 mi WSW 5.8 mph - N/A   Clear
7:35 AM 48.4 °F - 37.4 °F 66% 30.08 in 10.0 mi West 8.1 mph - N/A   Clear
7:55 AM 50.9 °F - 36.5 °F 58% 30.08 in 10.0 mi WNW 9.2 mph - N/A   Clear
8:15 AM 52.9 °F - 36.5 °F 54% 30.09 in 10.0 mi WNW 11.5 mph - N/A   Clear
8:35 AM 54.5 °F - 36.3 °F 50% 30.09 in 10.0 mi WNW 12.7 mph 17.3 mph N/A   Clear
8:55 AM 55.6 °F - 36.0 °F 48% 30.10 in 10.0 mi NW 9.2 mph 19.6 mph N/A   Clear
9:15 AM 56.7 °F - 35.2 °F 45% 30.10 in 10.0 mi WNW 15.0 mph 18.4 mph N/A   Clear
9:35 AM 57.7 °F - 34.9 °F 42% 30.10 in 10.0 mi WNW 17.3 mph 21.9 mph N/A   Clear
9:55 AM 59.0 °F - 35.1 °F 41% 30.09 in 10.0 mi WNW 15.0 mph 24.2 mph N/A   Clear
10:15 AM 59.5 °F - 34.7 °F 39% 30.09 in 10.0 mi WNW 17.3 mph 21.9 mph N/A   Clear
10:35 AM 60.4 °F - 35.1 °F 39% 30.08 in 10.0 mi WNW 15.0 mph 19.6 mph N/A   Clear
10:55 AM 62.2 °F - 35.8 °F 37% 30.08 in 10.0 mi NW 13.8 mph - N/A   Clear
11:15 AM 63.0 °F - 33.4 °F 33% 30.07 in 10.0 mi WNW 15.0 mph 25.3 mph N/A   Clear
11:35 AM 64.4 °F - 33.3 °F 31% 30.07 in 10.0 mi WNW 11.5 mph 20.7 mph N/A   Clear
11:55 AM 65.5 °F - 34.0 °F 31% 30.06 in 10.0 mi West 13.8 mph 23.0 mph N/A   Clear
12:15 PM 65.5 °F - 35.2 °F 33% 30.06 in 10.0 mi West 13.8 mph 21.9 mph N/A   Clear
12:35 PM 67.1 °F - 36.0 °F 32% 30.05 in 10.0 mi West 16.1 mph 23.0 mph N/A   Clear
12:55 PM 67.6 °F - 35.1 °F 30% 30.05 in 10.0 mi West 13.8 mph 20.7 mph N/A   Clear
1:15 PM 68.2 °F - 34.7 °F 29% 30.05 in 10.0 mi NW 13.8 mph 21.9 mph N/A   Clear
1:35 PM 69.3 °F - 35.1 °F 28% 30.04 in 10.0 mi NW 17.3 mph 23.0 mph N/A   Clear
1:55 PM 68.9 °F - 34.2 °F 28% 30.04 in 10.0 mi NW 17.3 mph 28.8 mph N/A   Clear
2:15 PM 69.8 °F - 34.5 °F 27% 30.03 in 10.0 mi West 16.1 mph 23.0 mph N/A   Clear
2:35 PM 70.2 °F - 34.0 °F 26% 30.03 in 10.0 mi WNW 18.4 mph 26.5 mph N/A   Clear
2:55 PM 70.0 °F - 35.4 °F 28% 30.02 in 10.0 mi NW 13.8 mph 23.0 mph N/A   Clear
3:15 PM 70.5 °F - 34.3 °F 26% 30.02 in 10.0 mi NW 11.5 mph 24.2 mph N/A   Clear
3:35 PM 71.1 °F - 34.0 °F 26% 30.02 in 10.0 mi NNW 11.5 mph 28.8 mph N/A   Clear
3:55 PM 71.2 °F - 33.6 °F 25% 30.02 in 10.0 mi NW 10.4 mph 27.6 mph N/A   Clear
4:15 PM 71.6 °F - 35.1 °F 26% 30.02 in 10.0 mi NNW 11.5 mph 18.4 mph N/A   Clear
4:35 PM 71.2 °F - 35.8 °F 27% 30.01 in 10.0 mi NW 16.1 mph 27.6 mph N/A   Clear
4:55 PM 71.2 °F - 36.5 °F 28% 30.01 in 10.0 mi NW 12.7 mph 19.6 mph N/A   Clear
5:15 PM 70.9 °F - 37.0 °F 29% 30.00 in 10.0 mi North 10.4 mph 19.6 mph N/A   Clear
5:35 PM 70.7 °F - 36.9 °F 29% 29.99 in 10.0 mi NNW 16.1 mph 21.9 mph N/A   Clear
5:55 PM 70.2 °F - 38.1 °F 31% 30.00 in 10.0 mi North 11.5 mph 23.0 mph N/A   Clear
6:15 PM 69.8 °F - 37.9 °F 31% 29.99 in 10.0 mi North 11.5 mph 17.3 mph N/A   Clear
6:35 PM 69.1 °F - 37.8 °F 32% 29.99 in 10.0 mi NNE 13.8 mph 20.7 mph N/A   Clear
6:55 PM 68.7 °F - 37.8 °F 32% 29.99 in 10.0 mi North 11.5 mph 17.3 mph N/A   Clear
7:15 PM 68.0 °F - 37.6 °F 33% 29.99 in 10.0 mi North 12.7 mph - N/A   Clear
7:35 PM 67.1 °F - 36.9 °F 33% 30.00 in 10.0 mi North 10.4 mph - N/A   Clear
7:55 PM 66.2 °F - 37.0 °F 34% 30.01 in 10.0 mi North 13.8 mph 17.3 mph N/A   Clear
8:15 PM 64.6 °F - 37.6 °F 37% 30.01 in 10.0 mi NNE 12.7 mph 18.4 mph N/A   Clear
8:35 PM 63.3 °F - 38.5 °F 40% 30.01 in 10.0 mi NE 9.2 mph - N/A   Clear
8:55 PM 61.2 °F - 38.8 °F 44% 30.01 in 10.0 mi NE 9.2 mph - N/A   Clear
9:15 PM 59.5 °F - 37.9 °F 45% 30.01 in 10.0 mi NE 9.2 mph - N/A   Clear
9:35 PM 57.9 °F - 38.5 °F 48% 30.03 in 10.0 mi NNE 9.2 mph - N/A   Clear
9:55 PM 56.3 °F - 38.8 °F 52% 30.03 in 10.0 mi NE 8.1 mph - N/A   Clear
10:15 PM 53.6 °F - 39.2 °F 58% 30.04 in 10.0 mi NE 9.2 mph - N/A   Clear
10:35 PM 52.5 °F - 39.0 °F 60% 30.05 in 10.0 mi NE 6.9 mph - N/A   Clear
10:55 PM 50.9 °F - 38.8 °F 63% 30.04 in 10.0 mi NE 6.9 mph - N/A   Clear
11:15 PM 49.5 °F - 38.8 °F 67% 30.05 in 10.0 mi NE 6.9 mph - N/A   Clear
11:35 PM 49.3 °F - 38.7 °F 67% 30.06 in 10.0 mi ENE 5.8 mph - N/A   Clear
11:55 PM 48.6 °F - 38.3 °F 68% 30.06 in 10.0 mi NE 6.9 mph - N/A   Clear